Powrót do katalogu

TITAN 3C TRANSTAGE DEB

AktywnyMEO
NORAD 43454·DEBRIS·🇺🇸 United States

Wystrzelony Feb 9, 1969 z Cape Canaveral Space Force Station

Loading…

Następne Przeloty (najbliższe 24 godziny)

TLE

ŚwieżeSource: Space-Track

Epoka: Sep 13, 2026, 17:31 UTC

1 43454U 69013M   26256.73028570 -.00000164  00000-0  00000-0 0  9994
2 43454   1.3231 115.7046 0543501 358.4542   2.1896  1.02845854 31541

Śledź TITAN 3C TRANSTAGE DEB w czasie rzeczywistym z AllMySat

Download on the App Store